TimeCST,TemperatureF,Dew PointF,Humidity,Sea Level PressureIn,VisibilityMPH,Wind Direction,Wind SpeedMPH,Gust SpeedMPH,PrecipitationIn,Events,Conditions,WindDirDegrees,DateUTC
1:56 AM,55.0,34.0,45,29.27,10.0,WNW,15.0,21.9,N/A,,Mostly Cloudy,300,2011-11-13 07:56:00
2:56 AM,50.0,43.0,77,29.31,10.0,WNW,11.5,26.5,0.00,Rain,Light Rain,300,2011-11-13 08:56:00
3:56 AM,44.1,41.0,89,29.24,10.0,ESE,3.5,-,0.01,,Partly Cloudy,110,2011-11-13 09:56:00
4:56 AM,39.9,37.9,93,29.27,10.0,WSW,20.7,34.5,N/A,,Partly Cloudy,250,2011-11-13 10:56:00
5:56 AM,42.1,27.0,55,29.28,10.0,West,13.8,-,N/A,,Clear,270,2011-11-13 11:56:00
7:56 AM,42.1,30.0,62,29.32,10.0,West,20.7,29.9,N/A,,Clear,270,2011-11-13 13:56:00
8:56 AM,43.0,30.0,60,29.38,10.0,WNW,17.3,26.5,N/A,,Clear,290,2011-11-13 14:56:00
9:56 AM,45.0,30.9,58,29.44,10.0,WNW,20.7,31.1,N/A,,Clear,300,2011-11-13 15:56:00
10:56 AM,48.0,32.0,54,29.48,10.0,WNW,21.9,27.6,N/A,,Clear,300,2011-11-13 16:56:00
11:56 AM,48.9,32.0,52,29.48,10.0,WNW,15.0,-,N/A,,Clear,300,2011-11-13 17:56:00
12:56 PM,52.0,33.1,49,29.48,10.0,West,17.3,23.0,N/A,,Clear,280,2011-11-13 18:56:00
1:56 PM,50.0,32.0,50,29.48,10.0,West,10.4,-,N/A,,Clear,270,2011-11-13 19:56:00
2:56 PM,52.0,30.0,43,29.47,10.0,West,9.2,-,N/A,,Clear,270,2011-11-13 20:56:00
3:56 PM,53.1,26.1,35,29.48,10.0,WNW,8.1,-,N/A,,Clear,300,2011-11-13 21:56:00
4:56 PM,48.9,26.1,41,29.52,10.0,SW,3.5,-,N/A,,Clear,220,2011-11-13 22:56:00
5:56 PM,45.0,24.1,44,29.53,10.0,SSW,6.9,-,N/A,,Clear,200,2011-11-13 23:56:00
6:56 PM,44.1,25.0,47,29.54,10.0,SSW,10.4,-,N/A,,Clear,200,2011-11-14 00:56:00
7:56 PM,39.9,21.0,47,29.56,10.0,SSW,9.2,-,N/A,,Clear,200,2011-11-14 01:56:00
8:56 PM,43.0,25.0,49,29.56,10.0,South,10.4,-,N/A,,Clear,190,2011-11-14 02:56:00
9:56 PM,44.1,24.1,45,29.55,10.0,South,11.5,-,N/A,,Clear,190,2011-11-14 03:56:00
10:56 PM,36.0,25.0,64,29.54,10.0,ESE,5.8,-,N/A,,Clear,110,2011-11-14 04:56:00
11:56 PM,37.0,25.0,62,29.53,10.0,Calm,Calm,-,N/A,,Clear,0,2011-11-14 05:56:00